Regional Weather Roundup
Issued by NWS Upton, NY

Current Version | Previous Version | Graphics & Text | Print | Product List | Glossary Off
Versions: 1 2 3 4 5 6 7 8 9 10 11 12 13 14 15 16 17 18 19 20 21 22 23 24 25 26 27 28 29 30 31 32 33 34 35 36 37 38 39 40 41 42 43 44 45 46 47 48 49 50

000
ASUS41 KOKX 290204
RWROKX

REGIONAL WEATHER ROUNDUP
NATIONAL WEATHER SERVICE NEW YORK NY
1000 PM EDT FRI AUG 28 2015

NOTE: "FAIR" INDICATES FEW OR NO CLOUDS BELOW 12,000 FEET WITH NO
SIGNIFICANT WEATHER AND/OR OBSTRUCTIONS TO VISIBILITY.

NYZ071-072-176-178-NJZ106-104-290300-
NEW YORK CITY METRO AREA


CITY           SKY/WX    TMP DP  RH WIND       PRES   REMARKS
CENTRAL PARK   CLEAR     75  51  43 VRB3      30.22R
LAGUARDIA APRT MOCLDY    76  54  46 N7        30.18R
KENNEDY INTL   MOCLDY    74  62  66 SW12      30.20R
NEWARK/LIBERTY PTCLDY    74  52  46 N6        30.19R
BRNX BOT. GARD   N/A     72  54  53 N2        30.19R
TETERBORO      CLEAR     72  51  47 NW6       30.18R
$$

NYZ177-179-078>081-290300-
LONG ISLAND NEW YORK

CITY           SKY/WX    TMP DP  RH WIND       PRES   REMARKS
FARMINGDALE    CLEAR     72  60  66 SW5       30.19R
ISLIP          PTCLDY    70  57  63 CALM      30.18R
SHIRLEY          N/A     64  58  80 CALM      30.19R
WESTHAMPTON    CLEAR     58  53  84 CALM      30.20R
MONTAUK POINT    N/A     70  62  76 SW3       30.19R
$$

NYZ052-065-067-290300-
HUDSON VALLEY

CITY           SKY/WX    TMP DP  RH WIND       PRES   REMARKS
WHITE PLAINS   CLEAR     64  54  69 NW6       30.20R
NEWBURGH       NOT AVBL
MONTGOMERY     CLEAR     60  56  86 CALM      30.20R
POUGHKEEPSIE   PTCLDY    65  57  75 CALM      30.18R
ALBANY         PTCLDY    64  54  69 CALM      30.19R
$$

NJZ001-105-106-008-010-013-015-019>022-104-290300-
NEW JERSEY

CITY           SKY/WX    TMP DP  RH WIND       PRES   REMARKS
NEWARK/LIBERTY PTCLDY    74  52  46 N6        30.19R
TETERBORO      CLEAR     72  51  47 NW6       30.18R
CALDWELL       CLEAR     66  54  65 CALM      30.20R
MORRISTOWN     CLEAR     61  57  88 CALM      30.20R
SOMERVILLE     CLEAR     62  57  83 CALM      30.18R
SUSSEX         CLEAR     58  54  86 CALM      30.21R
ANDOVER          N/A     58  56  93 CALM      30.22R
TRENTON        CLEAR     68  56  65 CALM      30.19R
MILLVILLE      CLEAR     64  59  83 CALM      30.19R
ATLANTIC CITY  PTCLDY    70  61  73 S3        30.20R
WRIGHTSTOWN    NOT AVBL
TOMS RIVER     CLEAR     63  55  77 CALM      30.20S
BELMAR         CLEAR     70  55  60 CALM      30.20R
$$

PAZ047>061-062-071-290300-
EASTERN PENNSYLVANIA

CITY           SKY/WX    TMP DP  RH WIND       PRES   REMARKS
PHILADELPHIA   PTCLDY    77  54  44 N3        30.19R
ALLENTOWN      CLEAR     63  56  78 NE5       30.20R
SCRANTON       CLEAR     64  55  72 E6        30.22R
$$

CTZ002-004>006-009-010-012-RIZ004-006-007-MAZ004-011-015-290300-
SOUTHERN NEW ENGLAND
 IN CT

CITY           SKY/WX    TMP DP  RH WIND       PRES   REMARKS
BRADLEY INTL   PTCLDY    65  56  72 NW3       30.17R
HARTFORD       CLOUDY    68  58  70 CALM      30.18R
DANBURY        CLEAR     60  54  80 SW5       30.21R
WTRBRY/OXFORD  CLEAR     61  50  67 CALM      30.22R
BRIDGEPORT     CLEAR     71  57  61 N5        30.18R
MERIDEN        CLEAR     63  57  81 CALM      30.19R
NEW HAVEN      CLEAR     66  57  72 N3        30.19R
CHESTER        NOT AVBL
GROTON         CLEAR     62  58  86 CALM      30.17R
WILLIMANTIC    CLEAR     64  58  80 CALM      30.18R

 IN RI

CITY           SKY/WX    TMP DP  RH WIND       PRES   REMARKS
PROVIDENCE     PTCLDY    69  57  65 W8        30.17R
BLOCK ISLAND   CLEAR     68  64  88 W8        30.18R
WESTERLY       CLEAR     65  62  90 CALM      30.18R

 IN MA

CITY           SKY/WX    TMP DP  RH WIND       PRES   REMARKS
BOSTON         PTCLDY    69  60  73 S6        30.15S
WORCESTER      CLEAR     64  53  67 W7        30.19R
WESTFIELD      CLEAR     61  57  87 CALM      30.18R
PROVINCETOWN   CLEAR     68  57  68 S7        30.16S
NANTUCKET      CLEAR     64  58  80 CALM      30.17R
$$

ANZ330-335-338-340-345-350-353-355-290300-
COASTAL MARINE OBSERVATIONS


STATION/POSITION TIME  SKY/WX   TEMP    WIND        PRES    VSBY  WAVE
                                AIR SEA DIR/SP/G                  HT/PER
                 (UTC)          (F)     (DEG/KT/KT) (MB)    (MI)  (FT/S)
NY HARB ENTRANCE 0150            74 76  220/ 14/ 16 1021.7          3/10
4S FIRE IS       NOT AVBL
20S FIRE ISLAND  0050            73 75  190/  6/  8 1021.5          3/11
GREAT SOUTH BAY  0100            74 78  220/  6/  8   N/A
23SW MTP         0150            72 74  250/  6/  8 1021.6          3/11
HUDSON CANYON    NOT AVBL
KINGS POINT      NOT AVBL
EXECUTION ROCKS  0100            75     310/  4/  6   N/A
CENTRAL LI SOUND NOT AVBL
EASTERN LI SOUND 0100            71 71  210/  6/  8   N/A
ROBBINS REEF     NOT AVBL
$$


>>>>>>>>>>>>>>>>>>>>>>>>>>>> KEY <<<<<<<<<<<<<<<<<<<<<<<<<<<
>                                                          <
>     SKY/WX - SKY CONDITION/PRESENT WEATHER               <
>     TMP    - TEMPERATURE IN FAHRENHEIT                   <
>     DP     - DEWPOINT IN FAHRENHEIT                      <
>     RH     - RELATIVE HUMIDITY IN PERCENT                <
>     WIND   - DIRECTION AND SPEED IN MPH                  <
>     PRES   - MEAN SEA LEVEL PRESSURE IN INCHES OF HG     <
>     WCI    - WIND CHILL INDEX                            <
>     VSB    - VISIBILITY IN MILES                         <
>     HX     - HEAT INDEX                                  <
>     TC     - TEMPERATURE IN CELSIUS                      <
>     VRB    - VARIABLE WIND DIRECTION                     <
>                                                          <
>>>>>>>>>>>>>>>>>>>>>>>>>>>> KEY <<<<<<<<<<<<<<<<<<<<<<<<<<<




USA.gov is the U.S. government's official web portal to all federal, state and local government web resources and services.